This demonstration page uses our WeatherBlox Daily Observations layout. Learn more.

Left ArrowRight Arrow

39.51506, -84.39828

Hourly Observations for February 29, 2020

Temp ( °F °C ) Dew Point ( °F °C ) Humidity (%) Winds ( mph kmh ) Pressure ( in mb ) Visibility ( mi km ) Precip ( " mm )
12:15 am 00:15 Clear 22 -5.4 13 -10.3 69 69 NW 10 17 30.17 1022 10 16.0934 0 0
12:35 am 00:35 Clear 22 -5.7 13 -10.4 70 70 WNW 7 11 30.17 1022 10 16.0934 0 0
12:55 am 00:55 Clear 20 -6.4 13 -10.6 72 72 W 5 7 30.17 1022 10 16.0934 0 0
1:15 am 01:15 Clear 21 -6.3 13 -10.3 74 74 WNW 7 11 30.17 1022 10 16.0934 0 0
1:35 am 01:35 Clear 20 -6.7 13 -10.5 75 75 W 7 11 30.17 1022 10 16.0934 0 0
1:55 am 01:55 Clear 19 -7.1 13 -10.5 77 77 W 5 7 30.18 1022 10 16.0934 0 0
2:15 am 02:15 Clear 19 -7 14 -10.2 78 78 W 7 11 30.17 1022 10 16.0934 0 0
2:35 am 02:35 Clear 19 -7 14 -10 79 79 W 8 13 30.17 1022 10 16.0934 0 0
2:55 am 02:55 Clear 19 -7.2 14 -10.1 80 80 W 7 11 30.18 1022 10 16.0934 0 0
3:15 am 03:15 Clear 19 -7.2 14 -10.1 80 80 W 8 13 30.19 1022 10 16.0934 0 0
3:35 am 03:35 Clear 19 -7 14 -10.1 79 79 W 7 11 30.18 1022 10 16.0934 0 0
3:55 am 03:55 Clear 19 -7.3 13 -10.3 79 79 W 7 11 30.19 1022 10 16.0934 0 0
4:15 am 04:15 Clear 19 -7.1 14 -10.2 79 79 W 10 17 30.2 1023 10 16.0934 0 0
4:35 am 04:35 Clear 19 -7.2 13 -10.3 79 79 W 10 17 30.2 1023 10 16.0934 0 0
4:55 am 04:55 Clear 19 -7.3 13 -10.5 78 78 W 9 15 30.21 1023 10 16.0934 0 0
5:15 am 05:15 Clear 19 -7.5 13 -10.7 78 78 W 8 13 30.21 1023 10 16.0934 0 0
5:35 am 05:35 Clear 19 -7.4 13 -10.8 77 77 W 7 11 30.21 1023 10 16.0934 0 0
5:55 am 05:55 Clear 19 -7.5 12 -11 76 76 W 8 13 30.22 1023 10 16.0934 0 0
6:15 am 06:15 Clear 18 -7.6 12 -11 77 77 W 8 13 30.22 1023 10 16.0934 0 0
6:35 am 06:35 Clear 18 -8 12 -11.2 78 78 W 8 13 30.23 1024 10 16.0934 0 0
6:55 am 06:55 Clear 18 -7.6 12 -11.3 75 75 W 9 15 30.24 1024 10 16.0934 0 0
7:15 am 07:15 Sunny 18 -7.7 11 -11.4 75 75 W 9 15 30.25 1024 10 16.0934 0 0
7:35 am 07:35 Sunny 19 -7.5 12 -11.3 75 75 W 8 13 30.25 1024 10 16.0934 0 0
7:55 am 07:55 Sunny 19 -7 12 -11.1 73 73 W 8 13 30.25 1025 10 16.0934 0 0
8:15 am 08:15 Sunny 20 -6.4 13 -10.8 71 71 W 8 13 30.25 1024 10 16.0934 0 0
8:35 am 08:35 Sunny 22 -5.7 13 -10.8 68 68 W 12 19 30.26 1025 10 16.0934 0 0
8:55 am 08:55 Sunny 23 -5.1 13 -10.8 65 65 W 9 15 30.27 1025 10 16.0934 0 0
9:15 am 09:15 Sunny 24 -4.5 13 -10.5 63 63 W 10 17 30.27 1025 10 16.0934 0 0
9:35 am 09:35 Sunny 25 -3.8 14 -10.1 62 62 W 14 22 30.28 1025 10 16.0934 0 0
9:55 am 09:55 Sunny 26 -3.3 15 -9.7 62 62 W 10 17 30.27 1025 10 16.0934 0 0
10:15 am 10:15 Sunny 27 -2.8 15 -9.3 61 61 W 13 20 30.28 1026 10 16.0934 0 0
10:35 am 10:35 Sunny 28 -2.2 17 -8.6 62 62 W 12 19 30.28 1025 10 16.0934 0 0
10:55 am 10:55 Sunny 28 -2.1 16 -8.9 60 60 W 9 15 30.29 1026 10 16.0934 0 0
11:15 am 11:15 Partly Cloudy 29 -1.4 17 -8.4 59 59 WNW 9 15 30.29 1026 10 16.0934 0 0
11:35 am 11:35 Sunny 30 -1.1 16 -9 55 55 NW 14 22 30.3 1026 10 16.0934 0 0
11:55 am 11:55 Partly Cloudy 31 -0.8 15 -9.2 53 53 W 14 22 30.3 1026 10 16.0934 0 0
12:15 pm 12:15 Sunny 31 -0.6 14 -9.8 50 50 W 10 17 30.29 1026 10 16.0934 0 0
12:35 pm 12:35 Sunny 32 0.1 15 -9.2 50 50 W 10 17 30.29 1026 10 16.0934 0 0
12:55 pm 12:55 Sunny 33 0.3 14 -10.2 46 46 W 16 26 30.28 1026 10 16.0934 0 0
1:15 pm 13:15 Sunny 33 0.4 13 -10.5 44 44 WNW 12 19 30.27 1025 10 16.0934 0 0
1:35 pm 13:35 Sunny 34 0.9 14 -10.1 44 44 W 14 22 30.27 1025 10 16.0934 0 0
1:55 pm 13:55 Sunny 34 1 14 -10.1 44 44 W 10 17 30.26 1025 10 16.0934 0 0
2:15 pm 14:15 Sunny 34 1.2 13 -10.4 42 42 WNW 10 17 30.26 1025 10 16.0934 0 0
2:35 pm 14:35 Sunny 35 1.6 13 -10.5 41 41 W 15 24 30.26 1025 10 16.0934 0 0
2:55 pm 14:55 Sunny 35 1.7 13 -10.8 39 39 W 10 17 30.26 1025 10 16.0934 0 0
3:15 pm 15:15 Sunny 35 1.7 14 -9.9 42 42 WSW 17 28 30.26 1025 10 16.0934 0 0
3:35 pm 15:35 Sunny 35 1.7 13 -10.3 41 41 WSW 13 20 30.26 1025 10 16.0934 0 0
3:55 pm 15:55 Sunny 36 2 15 -9.7 42 42 W 8 13 30.26 1025 10 16.0934 0 0
4:15 pm 16:15 Sunny 36 2.1 13 -10.4 39 39 SW 14 22 30.25 1024 10 16.0934 0 0
4:35 pm 16:35 Sunny 35 1.8 13 -10.8 39 39 SW 13 20 30.26 1025 10 16.0934 0 0
4:55 pm 16:55 Sunny 35 1.9 12 -11.2 38 38 W 8 13 30.26 1025 10 16.0934 0 0
5:15 pm 17:15 Sunny 35 1.8 12 -11.2 38 38 W 9 15 30.27 1025 10 16.0934 0 0
5:35 pm 17:35 Sunny 35 1.4 11 -11.5 38 38 W 9 15 30.27 1025 10 16.0934 0 0
5:55 pm 17:55 Sunny 34 1.1 13 -10.8 41 41 W 10 17 30.26 1025 10 16.0934 0 0
6:15 pm 18:15 Sunny 33 0.5 13 -10.3 45 45 W 7 11 30.27 1025 10 16.0934 0 0
6:35 pm 18:35 Clear 31 -0.6 14 -10 49 49 W 6 9 30.28 1025 10 16.0934 0 0
6:55 pm 18:55 Clear 31 -0.6 14 -10.1 49 49 Calm 30.28 1025 10 16.0934 0 0
7:15 pm 19:15 Clear 28 -2.1 15 -9.5 57 57 Calm 30.28 1025 10 16.0934 0 0
7:35 pm 19:35 Clear 28 -2 17 -8.4 62 62 Calm 30.28 1025 10 16.0934 0 0
7:55 pm 19:55 Clear 26 -3.6 18 -7.6 74 74 Calm 30.3 1026 10 16.0934 0 0
8:15 pm 20:15 Clear 26 -3.3 19 -7.1 75 75 Calm 30.28 1026 10 16.0934 0 0
8:35 pm 20:35 Clear 25 -3.9 19 -7.2 78 78 Calm 30.29 1026 10 16.0934 0 0
8:55 pm 20:55 Clear 24 -4.3 19 -7.1 81 81 Calm 30.29 1026 10 16.0934 0 0
9:15 pm 21:15 Clear 25 -4 19 -7.4 77 77 N 3 6 30.29 1026 10 16.0934 0 0
9:35 pm 21:35 Clear 22 -5.8 18 -7.9 85 85 Calm 30.29 1026 10 16.0934 0 0
9:55 pm 21:55 Clear 23 -5.1 19 -7.1 86 86 Calm 30.29 1026 10 16.0934 0 0
10:15 pm 22:15 Clear 23 -5 19 -7.2 85 85 Calm 30.29 1026 10 16.0934 0 0
10:35 pm 22:35 Clear 22 -5.3 19 -7.5 85 85 Calm 30.29 1026 10 16.0934 0 0
10:55 pm 22:55 Clear 22 -5.5 18 -7.7 85 85 Calm 30.28 1025 10 16.0934 0 0
11:15 pm 23:15 Clear 22 -5.7 18 -7.8 85 85 Calm 30.28 1025 10 16.0934 0 0
11:35 pm 23:35 Clear 21 -5.9 18 -7.8 87 87 Calm 30.28 1025 10 16.0934 0 0
11:55 pm 23:55 Clear 21 -6 18 -7.6 89 89 Calm 30.28 1025 10 16.0934 0 0

Powered by AerisWeather